Flag for Germany Weather past 2 weeks in Wismar, Mecklenburg-Western Pomerania, Germany

Now
77 °F

Scattered clouds.


Feels Like: 78 °F
Forecast: 65 / 85 °F
Wind: 2 mph from Southeast

Location: Schwerin

Current Time: Aug 3, 2015 at 9:17:13 PM

Latest Report: Aug 3, 2015 at 9:00 PM


Visibility: 13 mi

Pressure: 30.00 "Hg

Humidity: 51%

Dew point: 57 °F

Location of WismarLocation

Historic Weather in Wismar — Graph

°F

Wismar temperature yesterday

Maximum temperature yesterday: 75 °F (at 4:00 PM)
Minimum temperature yesterday: 54 °F (at 4:00 AM)
Average temperature yesterday: 67 °F

Past Weeks' High & Low Weather Summary

 TemperatureHumidityPressure
High86 °F (Aug 3, 5:00 PM)99% (Jul 24, 5:00 AM)30.16 "Hg (Jul 24, 5:00 AM)
Low45 °F (Aug 1, 4:00 AM)30% (Aug 3, 5:00 PM)29.44 "Hg (Jul 25, 2:00 PM)
Average63 °F72%29.84 "Hg
* Reported Jul 19 8:00 PM — Aug 3 8:00 PM, Wismar, Weather by CustomWeather, © 2015

Note: Actual official high and low records may vary slightly from our data, if they occured in-between our weather recording intervals... More about our weather records

Advertising

Wismar weather history for previous 24 hours

 ConditionsComfort  
Time TempWeatherWind HumidityBarometerVisibility
8:00 PM
Mon, Aug 3
83 °FPartly sunny.2 mph35%29.99 "Hg14 mi
7:00 PM86 °FOvercast.2 mph32%30.00 "Hg14 mi
6:00 PM86 °FPartly sunny.2 mph31%30.01 "Hg14 mi
5:00 PM86 °FOvercast.3 mph30%30.02 "Hg16 mi
4:00 PM86 °FOvercast.3 mph31%30.03 "Hg14 mi
3:00 PM85 °FScattered clouds.3 mph33%30.04 "Hg19 mi
2:00 PM82 °FSunny.3 mph36%30.06 "Hg14 mi
1:00 PM80 °FScattered clouds.3 mph42%30.08 "Hg14 mi
12:00 PM77 °FScattered clouds.3 mph46%30.09 "Hg19 mi
11:00 AM73 °FScattered clouds.3 mph50%30.11 "Hg14 mi
10:00 AM69 °FPartly sunny.3 mph55%30.11 "Hg18 mi
9:00 AM65 °FPartly sunny.3 mph60%30.11 "Hg14 mi
8:00 AM62 °FPartly sunny.3 mph67%30.12 "Hg14 mi
7:00 AM55 °FPartly sunny.3 mph92%30.12 "Hg9 mi
4:00 AM53 °FPassing clouds.1 mph96%30.14 "Hg7 mi
3:00 AM54 °FPassing clouds.2 mph94%30.14 "Hg9 mi
2:00 AM55 °FOvercast.2 mph94%30.15 "Hg8 mi
1:00 AM56 °FPassing clouds.1 mph94%30.16 "Hg10 mi
10:00 PM
Sun, Aug 2
62 °FPassing clouds.2 mph69%30.15 "Hg14 mi
9:00 PM65 °FOvercast.2 mph59%30.14 "Hg18 mi
Weather by CustomWeather, © 2015

See weather overviewHow to use our weather pages